| time (UTC) | temp F | wind direction | speed MPH | gust MPH | rain 1hr in | rain 24hr in | rain mn in | humidity % | barometer mb |
| 20260510224532 | 69 | 259 | 0.0 | 5.0 | 0.00 | 0.00 | 0.00 | 47 | 1021.9 |
| 20260510223031 | 68 | 264 | 1.0 | 10.0 | 0.00 | 0.00 | 0.00 | 49 | 1021.9 |
| 20260510220028 | 66 | 287 | 1.0 | 7.0 | 0.00 | 0.00 | 0.00 | 53 | 1021.7 |
| 20260510214529 | 66 | 282 | 0.0 | 5.0 | 0.00 | 0.00 | 0.00 | 54 | 1021.7 |
| 20260510213032 | 65 | 290 | 1.0 | 8.0 | 0.00 | 0.00 | 0.00 | 56 | 1021.9 |
| 20260510211531 | 64 | 281 | 1.0 | 7.0 | 0.00 | 0.00 | 0.00 | 58 | 1021.9 |
| 20260510204607 | 61 | 279 | 1.0 | 6.0 | 0.00 | 0.00 | 0.00 | 65 | 1022.0 |
| 20260510203103 | 61 | 287 | 1.0 | 10.0 | 0.00 | 0.00 | 0.00 | 64 | 1021.8 |
| 20260510200033 | 67 | 296 | 1.0 | 5.0 | 0.00 | 0.00 | 0.00 | 58 | 1021.4 |
| 20260510194532 | 68 | 285 | 0.0 | 6.0 | 0.00 | 0.00 | 0.00 | 60 | 1021.3 |
| 20260510193029 | 66 | 284 | 0.0 | 6.0 | 0.00 | 0.00 | 0.00 | 61 | 1021.2 |
| 20260510184536 | 64 | 284 | 0.0 | 5.0 | 0.00 | 0.00 | 0.00 | 66 | 1020.7 |
| 20260510183033 | 64 | 285 | 0.0 | 5.0 | 0.00 | 0.00 | 0.00 | 65 | 1020.5 |
| 20260510181530 | 66 | 277 | 0.0 | 7.0 | 0.00 | 0.00 | 0.00 | 63 | 1020.3 |
| 20260510180033 | 66 | 274 | 0.0 | 5.0 | 0.00 | 0.00 | 0.00 | 65 | 1020.3 |
| 20260510174529 | 62 | 249 | 0.0 | 5.0 | 0.00 | 0.00 | 0.00 | 68 | 1020.5 |
| 20260510171531 | 64 | 221 | 0.0 | 4.0 | 0.00 | 0.00 | 0.00 | 65 | 1020.5 |
| 20260510164643 | 65 | 238 | 0.0 | 2.0 | 0.00 | 0.00 | 0.00 | 61 | 1020.5 |
| 20260510163031 | 65 | 200 | 0.0 | 3.0 | 0.00 | 0.00 | 0.00 | 61 | 1020.5 |
| 20260510161530 | 63 | 202 | 0.0 | 2.0 | 0.00 | 0.00 | 0.00 | 64 | 1020.6 |
| 20260510160028 | 61 | 202 | 0.0 | 1.0 | 0.00 | 0.00 | 0.00 | 65 | 1020.6 |
| 20260510154527 | 59 | 202 | 0.0 | 0.0 | 0.00 | 0.00 | 0.00 | 67 | 1020.4 |
| 20260510153028 | 58 | 217 | 0.0 | 1.0 | 0.00 | 0.00 | 0.00 | 69 | 1020.4 |
| 20260510151606 | 57 | 225 | 0.0 | 1.0 | 0.00 | 0.00 | 0.00 | 72 | 1020.4 |
| 20260510150103 | 56 | 211 | 0.0 | 2.0 | 0.00 | 0.00 | 0.00 | 75 | 1020.4 |
| 20260510144531 | 55 | 241 | 0.0 | 2.0 | 0.00 | 0.00 | 0.00 | 77 | 1020.2 |
| 20260510143030 | 55 | 247 | 0.0 | 0.0 | 0.00 | 0.00 | 0.00 | 78 | 1020.1 |
| 20260510134528 | 51 | 225 | 0.0 | 0.0 | 0.00 | 0.00 | 0.00 | 81 | 1020.1 |
| 20260510133037 | 50 | 225 | 0.0 | 1.0 | 0.00 | 0.00 | 0.00 | 81 | 1020.0 |
| 20260510131530 | 50 | 225 | 0.0 | 0.0 | 0.00 | 0.00 | 0.00 | 80 | 1020.0 |
| 20260510130032 | 49 | 242 | 0.0 | 2.0 | 0.00 | 0.00 | 0.00 | 80 | 1020.0 |
| 20260510124528 | 48 | 235 | 0.0 | 2.0 | 0.00 | 0.00 | 0.00 | 81 | 1020.0 |
| 20260510123031 | 48 | 225 | 0.0 | 2.0 | 0.00 | 0.00 | 0.00 | 81 | 1020.0 |
| 20260510120030 | 50 | 234 | 0.0 | 2.0 | 0.00 | 0.00 | 0.00 | 78 | 1020.0 |
| 20260510114530 | 49 | 264 | 0.0 | 3.0 | 0.00 | 0.00 | 0.00 | 79 | 1019.9 |
| 20260510113031 | 49 | 270 | 0.0 | 2.0 | 0.00 | 0.00 | 0.00 | 78 | 1019.9 |
| 20260510111531 | 49 | 253 | 0.0 | 2.0 | 0.00 | 0.00 | 0.00 | 78 | 1019.8 |
| 20260510110033 | 49 | 247 | 0.0 | 3.0 | 0.00 | 0.00 | 0.00 | 78 | 1019.7 |
| 20260510104532 | 49 | 257 | 0.0 | 2.0 | 0.00 | 0.00 | 0.00 | 76 | 1019.9 |
| 20260510103030 | 50 | 270 | 0.0 | 1.0 | 0.00 | 0.00 | 0.00 | 74 | 1019.9 |
| 20260510101529 | 51 | 270 | 0.0 | 1.0 | 0.00 | 0.00 | 0.00 | 73 | 1019.8 |
| 20260510100027 | 51 | 270 | 0.0 | 2.0 | 0.00 | 0.00 | 0.00 | 71 | 1019.8 |
| 20260510094531 | 51 | 262 | 0.0 | 1.0 | 0.00 | 0.00 | 0.00 | 70 | 1019.7 |
| 20260510091531 | 51 | 247 | 0.0 | 1.0 | 0.00 | 0.00 | 0.00 | 72 | 1019.8 |
| 20260510090027 | 52 | 247 | 0.0 | 0.0 | 0.00 | 0.00 | 0.00 | 71 | 1019.9 |
| 20260510084530 | 53 | 247 | 0.0 | 2.0 | 0.00 | 0.00 | 0.00 | 69 | 1019.9 |
| 20260510083029 | 53 | 247 | 0.0 | 1.0 | 0.00 | 0.00 | 0.00 | 69 | 1020.1 |
| 20260510081530 | 53 | 247 | 0.0 | 2.0 | 0.00 | 0.00 | 0.00 | 69 | 1020.1 |
| 20260510080029 | 54 | 266 | 0.0 | 2.0 | 0.00 | 0.00 | 0.00 | 68 | 1020.1 |
| 20260510074533 | 54 | 270 | 0.0 | 1.0 | 0.00 | 0.00 | 0.00 | 66 | 1020.2 |
| 20260510073030 | 54 | 270 | 0.0 | 1.0 | 0.00 | 0.00 | 0.00 | 66 | 1020.2 |
| 20260510071607 | 54 | 270 | 0.0 | 1.0 | 0.00 | 0.00 | 0.00 | 65 | 1020.2 |
| 20260510070029 | 55 | 270 | 0.0 | 1.0 | 0.00 | 0.00 | 0.00 | 63 | 1020.2 |
| 20260510064531 | 56 | 270 | 0.0 | 1.0 | 0.00 | 0.00 | 0.00 | 62 | 1020.2 |
| 20260510063031 | 56 | 270 | 0.0 | 1.0 | 0.00 | 0.00 | 0.00 | 60 | 1020.0 |
| 20260510061528 | 58 | 270 | 0.0 | 1.0 | 0.00 | 0.00 | 0.00 | 58 | 1019.9 |
| 20260510060031 | 58 | 270 | 0.0 | 1.0 | 0.00 | 0.00 | 0.00 | 57 | 1019.9 |
| 20260510053031 | 59 | 265 | 0.0 | 1.0 | 0.00 | 0.00 | 0.00 | 56 | 1019.8 |
| 20260510051528 | 60 | 247 | 0.0 | 2.0 | 0.00 | 0.00 | 0.00 | 54 | 1019.7 |
| 20260510050031 | 61 | 259 | 0.0 | 2.0 | 0.00 | 0.00 | 0.00 | 53 | 1019.6 |
| 20260510044529 | 61 | 263 | 0.0 | 2.0 | 0.00 | 0.00 | 0.00 | 52 | 1019.4 |
| 20260510043032 | 62 | 257 | 1.0 | 2.0 | 0.00 | 0.00 | 0.00 | 52 | 1019.4 |
| 20260510041530 | 63 | 250 | 1.0 | 2.0 | 0.00 | 0.00 | 0.00 | 52 | 1019.2 |
| 20260510034530 | 65 | 247 | 0.0 | 2.0 | 0.00 | 0.00 | 0.00 | 50 | 1018.8 |
| 20260510033035 | 66 | 255 | 0.0 | 2.0 | 0.00 | 0.00 | 0.00 | 49 | 1018.8 |
| 20260510023029 | 70 | 273 | 0.0 | 0.0 | 0.00 | 0.00 | 0.00 | 49 | 1018.7 |
| 20260510021606 | 71 | 292 | 0.0 | 0.0 | 0.00 | 0.00 | 0.00 | 49 | 1018.7 |
| 20260510020031 | 72 | 292 | 0.0 | 0.0 | 0.00 | 0.00 | 0.00 | 47 | 1018.8 |
| 20260510014531 | 73 | 292 | 0.0 | 0.0 | 0.00 | 0.00 | 0.00 | 49 | 1018.9 |
| 20260510013029 | 71 | 292 | 0.0 | 0.0 | 0.00 | 0.00 | 0.00 | 47 | 1019.0 |
| 20260510011531 | 74 | 292 | 0.0 | 0.0 | 0.00 | 0.00 | 0.00 | 42 | 1019.1 |
| 20260510010030 | 78 | 292 | 0.0 | 0.0 | 0.00 | 0.00 | 0.00 | 37 | 1019.3 |
| 20260510004529 | 80 | 292 | 0.0 | 0.0 | 0.00 | 0.00 | 0.00 | 34 | 1019.4 |
| 20260510003031 | 81 | 292 | 0.0 | 0.0 | 0.00 | 0.00 | 0.00 | 31 | 1019.5 |
| 20260510001527 | 79 | 292 | 0.0 | 0.0 | 0.00 | 0.00 | 0.00 | 31 | 1019.5 |
| 20260510000031 | 80 | 232 | 0.0 | 0.0 | 0.00 | 0.00 | 0.00 | 31 | 1019.6 |
| 20260509233030 | 80 | 281 | 0.0 | 1.0 | 0.00 | 0.00 | 0.00 | 30 | 1020.0 |
| 20260509231530 | 80 | 289 | 0.0 | 2.0 | 0.00 | 0.00 | 0.00 | 29 | 1020.3 |
| 20260509230032 | 82 | 309 | 0.0 | 3.0 | 0.00 | 0.00 | 0.00 | 29 | 1020.6 |